{"data":{"norad_id":61005,"intl_designator":"2024-158R","name":"STARLINK-32284","alt_names":[],"object_type":"PAYLOAD","status":"ACTIVE","operator":null,"country":"US","launch_date":"2024-09-05","launch_site_code":"AFETR","launch_vehicle":null,"mission":null,"orbit_class":"UNKNOWN","rcs_meters":null,"size_class":null,"mass_kg":null,"dimensions":null,"purposes":["comms"],"wikipedia_slug":null,"has_3d_model":false,"image_url":null,"decayed_at":null,"tle_current":{"epoch":"2026-09-21T22:20:26.780928Z","epoch_age_seconds":68507,"freshness":"FRESH","line1":"1 61005U 24158R   26264.93086552  .00000241  00000+0  18275-4 0  9993","line2":"2 61005  53.1605 230.6849 0001442  93.9270 266.1898 15.34408603115671","mean_motion":15.34408603,"eccentricity":0.0001442,"inclination_deg":53.1605,"raan_deg":230.6849,"arg_perigee_deg":93.927,"mean_anomaly_deg":266.1898,"bstar":1.8275e-5,"rev_number":11567,"period_min":93.847231903196,"perigee_km":461.6912249221,"apogee_km":463.66411587305,"semimajor_km":6840.8146703976,"source":"CELESTRAK","updated_at":"2026-09-22T09:00:49.297622Z"}}}